GW6838 Weather Reports


Display with metric or nautical units.
time (UTC)temp
F
wind
direction
speed
MPH
gust
MPH
rain 1hr
in
rain 24hr
in
rain mn
in
humidity
%
barometer
mb
20260507010803 45 183 1.0 2.0 0.00 1.62 0.72 87 1011.6
20260507010303 45 289 1.0 2.0 0.00 1.62 0.72 87 1011.6
20260507005803 45 193 0.0 1.0 0.00 1.63 0.72 86 1011.4
20260507005305 45 5 0.0 2.0 0.00 1.63 0.72 86 1011.4
20260507004803 45 135 0.0 1.0 0.00 1.63 0.72 86 1011.5
20260507004303 45 242 1.0 2.0 0.00 1.64 0.72 86 1011.5
20260507002803 45 287 1.0 3.0 0.00 1.70 0.72 85 1011.2
20260507002306 45 226 0.0 3.0 0.00 1.75 0.72 85 1011.1
20260507001803 45 263 1.0 3.0 0.00 1.76 0.72 85 1011.2
20260507001303 46 251 1.0 5.0 0.00 1.76 0.72 85 1011.0
20260507000803 46 278 3.0 5.0 0.00 1.76 0.72 85 1011.2
20260507000306 46 261 2.0 6.0 0.00 1.76 0.72 85 1011.1
20260506235803 46 277 2.0 6.0 0.00 1.76 0.72 85 1011.0
20260506235306 46 270 3.0 5.0 0.00 1.76 0.72 85 1011.1
20260506234803 46 258 3.0 8.0 0.00 1.76 0.72 84 1010.8
20260506234303 46 253 4.0 8.0 0.00 1.76 0.72 84 1010.7
20260506233803 46 294 5.0 7.0 0.00 1.76 0.72 84 1010.8
20260506233303 46 248 0.0 8.0 0.00 1.76 0.72 84 1010.5
20260506232306 46 269 2.0 6.0 0.00 1.76 0.72 84 1010.5
20260506231804 46 291 3.0 6.0 0.00 1.76 0.72 84 1010.4
20260506231303 46 273 2.0 5.0 0.00 1.76 0.72 84 1010.3
20260506230803 47 266 1.0 3.0 0.00 1.76 0.72 84 1010.1
20260506230303 46 57 1.0 3.0 0.00 1.76 0.72 83 1010.0
20260506225305 46 332 0.0 3.0 0.00 1.76 0.72 83 1009.8
20260506224804 47 50 2.0 5.0 0.00 1.76 0.72 83 1009.9
20260506224304 47 303 1.0 5.0 0.00 1.76 0.72 84 1010.3
20260506223303 46 34 2.0 5.0 0.00 1.76 0.72 83 1010.3
20260506221803 47 301 2.0 6.0 0.00 1.76 0.72 84 1010.7
20260506221304 47 326 3.0 7.0 0.00 1.76 0.72 83 1010.4
20260506220804 47 343 2.0 8.0 0.00 1.76 0.72 83 1010.5
20260506220303 47 1 2.0 6.0 0.00 1.76 0.72 84 1010.3
20260506215803 47 264 2.0 10.0 0.00 1.76 0.72 84 1010.4
20260506214303 47 290 2.0 7.0 0.00 1.76 0.72 84 1010.2
20260506213804 47 310 2.0 9.0 0.00 1.76 0.72 85 1010.1
20260506213303 47 10 2.0 9.0 0.00 1.76 0.72 86 1010.2
20260506212803 47 281 4.0 9.0 0.00 1.76 0.72 86 1009.9
20260506211804 47 279 2.0 9.0 0.00 1.76 0.72 86 1010.0
20260506210804 46 264 5.0 9.0 0.00 1.77 0.72 88 1010.1
20260506205803 46 279 2.0 12.0 0.00 1.77 0.72 88 1010.0
20260506205306 46 294 3.0 12.0 0.00 1.77 0.72 89 1009.9
20260506204804 46 306 3.0 12.0 0.00 1.77 0.72 89 1009.8
20260506204304 46 300 5.0 12.0 0.00 1.77 0.72 89 1009.8
20260506203804 46 289 2.0 10.0 0.00 1.77 0.72 90 1009.7
20260506203303 46 15 2.0 13.0 0.00 1.77 0.72 91 1009.6
20260506202803 46 37 3.0 9.0 0.00 1.77 0.72 91 1009.4
20260506202306 46 265 3.0 7.0 0.01 1.77 0.72 92 1009.5
20260506201805 45 305 4.0 10.0 0.01 1.77 0.72 92 1009.4
20260506201303 46 320 3.0 10.0 0.01 1.77 0.72 92 1009.4
20260506200804 45 293 5.0 8.0 0.01 1.77 0.72 92 1009.3
20260506200303 45 282 2.0 8.0 0.01 1.77 0.72 92 1009.4
20260506195803 45 273 3.0 9.0 0.01 1.77 0.72 92 1009.4
20260506195305 45 291 6.0 9.0 0.01 1.77 0.72 92 1009.5
20260506194803 46 301 4.0 9.0 0.01 1.77 0.72 92 1009.5
20260506194304 45 277 4.0 9.0 0.00 1.77 0.72 92 1009.6
20260506193804 46 335 3.0 9.0 0.00 1.77 0.72 92 1009.7
20260506193303 46 274 6.0 9.0 0.00 1.77 0.72 92 1009.4
20260506192803 46 305 3.0 9.0 0.00 1.77 0.72 92 1009.5
20260506190803 46 111 1.0 7.0 0.00 1.77 0.71 91 1009.4
20260506190304 46 353 3.0 9.0 0.00 1.77 0.71 91 1009.1
20260506185804 46 290 3.0 7.0 0.00 1.77 0.71 91 1008.9
20260506185306 46 263 3.0 7.0 0.00 1.77 0.71 91 1009.1
20260506184803 46 349 4.0 8.0 0.00 1.77 0.71 92 1009.1
20260506184303 46 288 6.0 9.0 0.00 1.77 0.71 91 1009.1
20260506183303 46 328 3.0 9.0 0.00 1.77 0.71 92 1009.2
20260506182804 46 261 2.0 13.0 0.00 1.77 0.71 92 1009.0
20260506182306 46 24 5.0 13.0 0.00 1.77 0.71 92 1008.9
20260506181303 46 263 5.0 8.0 0.00 1.77 0.71 92 1008.8
20260506180803 46 324 5.0 9.0 0.00 1.77 0.71 92 1008.6
20260506180303 46 13 5.0 8.0 0.00 1.77 0.71 92 1008.5
20260506174805 46 313 3.0 10.0 0.00 1.79 0.71 92 1008.4
20260506174303 46 308 2.0 9.0 0.01 1.79 0.71 92 1008.4
20260506173803 46 353 5.0 13.0 0.01 1.79 0.71 92 1008.6
20260506172803 47 38 2.0 7.0 0.01 1.79 0.71 92 1008.6
20260506172306 47 52 3.0 10.0 0.01 1.79 0.71 92 1008.3
20260506171803 47 307 1.0 5.0 0.01 1.79 0.71 92 1008.3
20260506171304 46 342 2.0 7.0 0.01 1.79 0.71 92 1008.1
20260506170804 47 344 2.0 7.0 0.01 1.78 0.71 92 1008.2
20260506170303 47 9 5.0 7.0 0.01 1.78 0.71 92 1008.2
20260506165804 46 346 2.0 8.0 0.01 1.78 0.71 92 1008.2
20260506164804 46 341 1.0 5.0 0.02 1.78 0.71 92 1008.3
20260506164303 47 217 1.0 3.0 0.02 1.78 0.70 92 1008.4
20260506163804 47 311 0.0 5.0 0.02 1.78 0.70 92 1008.3
20260506163304 46 321 2.0 5.0 0.03 1.78 0.70 92 1008.3
20260506162306 46 323 3.0 8.0 0.04 1.78 0.70 92 1008.2
20260506161803 46 24 2.0 5.0 0.04 1.77 0.70 92 1008.4
20260506160804 46 306 2.0 5.0 0.04 1.77 0.70 92 1008.5
20260506160303 45 348 3.0 6.0 0.04 1.77 0.70 92 1008.7
20260506155803 45 27 2.0 7.0 0.04 1.77 0.70 92 1008.4
20260506155306 45 319 3.0 7.0 0.04 1.77 0.69 92 1008.4
20260506154803 45 288 1.0 5.0 0.03 1.76 0.69 92 1008.7
20260506154303 45 30 3.0 5.0 0.04 1.76 0.69 92 1008.8
20260506152803 45 345 2.0 7.0 0.02 1.73 0.66 92 1008.8
20260506151804 45 26 2.0 5.0 0.03 1.73 0.66 92 1008.6
20260506151304 45 257 1.0 3.0 0.04 1.73 0.66 92 1008.3
20260506150804 45 97 1.0 3.0 0.04 1.73 0.66 92 1008.4
20260506150304 45 3 2.0 5.0 0.04 1.73 0.66 92 1008.5
20260506145305 45 96 1.0 3.0 0.05 1.73 0.65 92 1008.1
20260506144804 45 113 1.0 3.0 0.06 1.73 0.65 92 1008.2
20260506143303 44 43 1.0 3.0 0.06 1.72 0.64 92 1008.0
20260506142804 44 27 1.0 6.0 0.07 1.71 0.64 92 1008.1
20260506142306 44 60 3.0 6.0 0.07 1.70 0.63 92 1007.9
20260506141804 44 91 2.0 5.0 0.07 1.70 0.63 92 1008.2
20260506140303 44 64 2.0 3.0 0.09 1.69 0.61 92 1008.4
20260506135804 44 348 1.0 5.0 0.10 1.68 0.61 92 1008.3
20260506134804 44 14 2.0 3.0 0.12 1.67 0.60 92 1008.5
20260506134304 44 38 2.0 3.0 0.13 1.67 0.59 92 1008.4
20260506133803 44 242 1.0 7.0 0.15 1.66 0.59 92 1008.4
20260506133303 44 24 3.0 6.0 0.15 1.65 0.58 92 1008.8
20260506132803 44 275 2.0 6.0 0.16 1.64 0.57 92 1008.7
20260506132307 44 43 3.0 6.0 0.16 1.64 0.56 92 1008.4
20260506131803 44 327 1.0 6.0 0.16 1.63 0.56 92 1008.5
20260506130803 44 303 2.0 3.0 0.14 1.60 0.53 92 1008.7
20260506130304 44 117 1.0 5.0 0.14 1.59 0.52 92 1008.7
20260506125306 44 18 2.0 5.0 0.12 1.57 0.49 92 1008.6
20260506124804 44 43 2.0 5.0 0.11 1.55 0.48 92 1008.5
20260506124305 44 251 1.0 3.0 0.10 1.53 0.46 92 1008.7
20260506123304 44 57 2.0 5.0 0.07 1.50 0.43 92 1008.6
20260506122803 44 12 1.0 5.0 0.05 1.48 0.41 92 1008.3
20260506122305 44 45 2.0 6.0 0.05 1.48 0.40 92 1008.4
20260506121804 44 89 1.0 6.0 0.04 1.47 0.39 92 1008.4
20260506121303 44 46 2.0 8.0 0.04 1.46 0.39 92 1008.3
20260506120803 44 43 4.0 7.0 0.05 1.46 0.39 92 1008.3
20260506120304 44 37 3.0 7.0 0.05 1.46 0.38 92 1008.3
20260506115805 44 63 3.0 7.0 0.06 1.45 0.38 92 1008.4
20260506115306 44 70 3.0 7.0 0.06 1.45 0.37 92 1008.4
20260506114804 44 33 3.0 8.0 0.07 1.44 0.37 92 1008.6
20260506114303 44 44 3.0 8.0 0.07 1.44 0.37 92 1008.7
20260506113804 44 22 3.0 7.0 0.08 1.44 0.36 92 1008.7
20260506113303 44 30 2.0 6.0 0.07 1.43 0.36 92 1008.6
20260506112803 44 63 3.0 7.0 0.08 1.43 0.36 92 1008.6
20260506112305 44 45 2.0 6.0 0.09 1.43 0.35 92 1008.9
20260506111803 44 73 3.0 8.0 0.09 1.42 0.35 92 1008.8
20260506111303 44 53 3.0 8.0 0.09 1.42 0.35 92 1008.8
20260506110803 44 37 3.0 7.0 0.09 1.41 0.34 92 1009.1
20260506110303 44 338 2.0 6.0 0.09 1.40 0.33 92 1009.1
20260506105305 44 2 3.0 5.0 0.08 1.38 0.31 92 1008.8
20260506104804 44 84 1.0 6.0 0.07 1.38 0.30 92 1008.8
20260506103803 44 60 2.0 5.0 0.07 1.36 0.29 92 1008.6
20260506103303 44 52 1.0 3.0 0.07 1.36 0.28 92 1008.8
20260506102803 44 65 3.0 3.0 0.06 1.35 0.28 92 1008.7
20260506102305 44 31 1.0 3.0 0.06 1.34 0.26 92 1008.7
20260506101805 44 32 1.0 5.0 0.06 1.33 0.26 92 1008.6
20260506101304 44 73 2.0 7.0 0.06 1.33 0.25 92 1008.5
20260506100803 44 61 5.0 7.0 0.07 1.32 0.24 92 1008.3
20260506100303 44 87 5.0 8.0 0.08 1.31 0.24 92 1008.4
20260506095803 44 73 4.0 9.0 0.09 1.31 0.24 92 1008.4
20260506094803 44 69 6.0 8.0 0.09 1.30 0.23 92 1008.4
20260506094303 44 67 2.0 8.0 0.09 1.29 0.22 92 1008.8
20260506093804 44 73 6.0 8.0 0.09 1.29 0.22 92 1008.6
20260506093303 44 66 3.0 7.0 0.09 1.29 0.22 92 1008.8
20260506092305 44 67 3.0 6.0 0.09 1.28 0.21 92 1009.1
20260506090803 44 21 3.0 7.0 0.08 1.25 0.18 92 1009.3
20260506090303 44 54 3.0 7.0 0.08 1.23 0.16 92 1009.4
20260506085305 44 358 1.0 7.0 0.07 1.21 0.14 92 1009.2
20260506084803 44 84 5.0 7.0 0.07 1.21 0.13 92 1009.0
20260506084304 44 58 2.0 8.0 0.06 1.20 0.13 92 1009.2
20260506083803 44 61 2.0 8.0 0.06 1.20 0.13 92 1009.0
20260506083304 44 38 3.0 8.0 0.06 1.20 0.13 92 1009.1
20260506082804 44 49 3.0 10.0 0.06 1.20 0.13 92 1008.9
20260506082305 44 66 7.0 10.0 0.05 1.19 0.12 92 1008.9
20260506081803 45 275 3.0 13.0 0.04 1.18 0.11 92 1009.6
20260506081307 45 86 10.0 13.0 0.03 1.18 0.10 92 1008.9
20260506080804 45 316 3.0 13.0 0.03 1.18 0.09 92 1009.4
20260506080303 45 64 3.0 12.0 0.01 1.16 0.08 92 1009.3
20260506073303 46 17 3.0 13.0 0.00 1.16 0.07 92 1008.7
20260506072803 46 43 5.0 10.0 0.00 1.16 0.07 92 1008.9
20260506072305 46 36 6.0 12.0 0.00 1.16 0.07 92 1008.9
20260506071803 46 49 8.0 12.0 0.01 1.16 0.07 92 1008.9
20260506071303 46 77 7.0 10.0 0.01 1.16 0.07 92 1008.8
20260506062306 47 75 5.0 7.0 0.02 1.15 0.06 92 1009.1
20260506061304 47 53 6.0 8.0 0.02 1.15 0.06 92 1009.4
20260506060804 48 85 6.0 8.0 0.02 1.14 0.06 92 1009.4
20260506060303 48 81 5.0 8.0 0.00 1.13 0.04 92 1009.4
20260506051305 48 31 1.0 2.0 0.01 1.13 0.04 92 1010.5
20260506050303 48 96 2.0 3.0 0.03 1.13 0.04 92 1010.3
20260506044304 48 57 2.0 3.0 0.63 1.13 0.04 92 1010.3
20260506043803 48 19 1.0 3.0 0.64 1.13 0.04 92 1010.5
20260506043304 47 134 1.0 3.0 0.66 1.12 0.04 92 1010.6
20260506041805 47 83 2.0 3.0 0.68 1.12 0.03 92 1010.2
20260506041303 47 63 2.0 3.0 0.69 1.12 0.03 92 1010.4
20260506040805 48 26 2.0 5.0 0.69 1.11 0.02 92 1010.4
20260506035306 48 87 3.0 5.0 0.14 0.54 0.54 92 1010.3
20260506034803 48 113 2.0 3.0 0.13 0.53 0.53 92 1010.7
20260506034303 48 150 2.0 3.0 0.11 0.51 0.51 92 1010.9
20260506033803 48 136 2.0 3.0 0.09 0.49 0.49 92 1010.6
20260506033303 48 75 1.0 2.0 0.09 0.48 0.48 92 1010.5
20260506032305 48 76 2.0 6.0 0.08 0.45 0.45 92 1010.4
20260506031804 48 48 4.0 5.0 0.08 0.44 0.44 92 1010.3
20260506030803 48 40 3.0 5.0 0.09 0.42 0.42 92 1010.4
20260506030304 48 52 2.0 3.0 0.08 0.41 0.41 92 1010.6
20260506025805 48 44 2.0 3.0 0.08 0.40 0.40 92 1011.0
20260506025305 48 22 2.0 5.0 0.09 0.40 0.40 92 1010.9
20260506024804 48 31 3.0 5.0 0.10 0.40 0.40 92 1010.8
20260506024304 48 40 3.0 5.0 0.12 0.40 0.40 92 1011.0
20260506023803 48 327 2.0 5.0 0.12 0.39 0.39 92 1011.1
20260506022804 48 72 0.0 3.0 0.13 0.39 0.39 92 1011.0
20260506022306 48 28 1.0 5.0 0.14 0.37 0.37 92 1011.0
20260506021803 48 224 1.0 5.0 0.15 0.37 0.37 92 1011.1
20260506021303 48 22 2.0 3.0 0.15 0.35 0.35 92 1010.7
20260506020804 48 3 0.0 5.0 0.14 0.34 0.34 92 1010.8
20260506020304 48 43 2.0 5.0 0.15 0.33 0.33 92 1010.6
20260506015803 48 84 2.0 5.0 0.14 0.32 0.32 92 1010.4
20260506015305 48 61 1.0 2.0 0.13 0.31 0.31 91 1010.6
20260506014804 48 61 1.0 3.0 0.12 0.29 0.29 91 1010.3
20260506014303 48 83 2.0 3.0 0.11 0.28 0.28 91 1010.5
20260506013804 48 95 2.0 2.0 0.11 0.27 0.27 91 1010.6
20260506013303 48 126 1.0 3.0 0.11 0.26 0.26 91 1010.6
20260506012804 48 69 2.0 3.0 0.14 0.25 0.25 91 1010.6
20260506011804 48 283 1.0 5.0 0.17 0.22 0.22 90 1010.6
20260506011303 48 35 2.0 5.0 0.15 0.20 0.20 90 1010.4